GW3620 Weather Reports


Display with metric or nautical units.
time (UTC)temp
F
wind
direction
speed
MPH
gust
MPH
rain 1hr
in
rain 24hr
in
rain mn
in
humidity
%
barometer
mb
20260505060048 59 53 1.0 3.0 0.04 0.15 0.00 83 1013.5
20260505055031 59 6 0.0 4.0 0.00 0.14 0.00 83 1013.5
20260505054050 58 33 1.0 4.0 0.00 0.14 0.00 83 1013.6
20260505053033 58 45 2.0 7.0 0.00 0.13 0.00 83 1013.4
20260505052033 58 41 2.0 6.0 0.00 0.13 0.00 84 1013.4
20260505051033 57 35 0.0 3.0 0.00 0.13 0.00 84 1013.5
20260505041033 60 88 2.0 9.0 0.08 0.09 0.00 71 1013.7
20260505040033 61 272 2.0 6.0 0.00 0.08 0.00 67 1013.4
20260505035033 62 284 4.0 7.0 0.00 0.07 0.00 65 1013.4
20260505034050 62 298 3.0 7.0 0.00 0.07 0.00 64 1012.4
20260505033048 61 83 3.0 7.0 0.00 0.07 0.00 63 1012.2
20260505032033 61 356 2.0 13.0 0.00 0.07 0.00 63 1012.2
20260505031033 60 352 3.0 7.0 0.00 0.07 0.00 62 1012.8
20260505030050 60 56 2.0 6.0 0.00 0.07 0.00 62 1012.8
20260505025033 59 1 3.0 7.0 0.00 0.06 0.00 64 1012.8
20260505024033 59 1 4.0 10.0 0.00 0.06 0.00 70 1013.1
20260505023048 59 353 4.0 9.0 0.00 0.06 0.00 71 1013.7
20260505022031 59 342 4.0 9.0 0.04 0.06 0.00 72 1013.7
20260505021033 60 12 0.0 1.0 0.05 0.06 0.00 73 1014.0
20260505020033 61 12 0.0 3.0 0.09 0.05 0.00 71 1013.9
20260505015033 62 0 0.0 0.0 0.06 0.04 0.00 66 1013.9
20260505014033 63 0 0.0 0.0 0.10 0.03 0.00 60 1014.0
20260505013033 64 36 1.0 7.0 0.00 0.01 0.00 52 1013.4
20260505012031 65 33 1.0 6.0 0.00 0.01 0.00 50 1013.4
20260505011033 65 33 3.0 6.0 0.00 0.01 0.00 47 1012.7
20260505010033 66 78 4.0 10.0 0.00 0.01 0.00 45 1012.9
20260505005033 67 73 4.0 7.0 0.00 0.01 0.00 41 1012.9
20260505004033 68 35 2.0 6.0 0.00 0.01 0.00 39 1012.7
20260505003033 68 71 5.0 13.0 0.00 0.01 0.00 39 1012.6
20260505002033 68 54 3.0 9.0 0.00 0.01 0.00 41 1012.6
20260505001031 68 2 1.0 9.0 0.00 0.01 0.00 43 1012.3
20260505000033 68 5 0.0 4.0 0.00 0.01 0.00 44 1011.9
20260504235033 69 348 0.0 1.0 0.00 0.00 0.00 42 1011.9
20260504234033 70 34 2.0 4.0 0.00 0.00 0.00 38 1012.3
20260504233033 71 273 6.0 18.0 0.00 0.00 0.00 34 1012.3
20260504232107 72 288 5.0 10.0 0.00 0.00 0.00 32 1012.3
20260504231030 74 284 4.0 13.0 0.00 0.00 0.00 29 1012.0
20260504230031 75 293 6.0 16.0 0.00 0.00 0.00 25 1011.4
20260504225033 76 284 9.0 21.0 0.00 0.00 0.00 23 1011.4
20260504224033 76 287 9.0 19.0 0.00 0.00 0.00 21 1011.3
20260504223033 77 290 5.0 9.0 0.00 0.00 0.00 21 1011.3
20260504222033 77 275 4.0 10.0 0.00 0.00 0.00 21 1011.3
20260504221033 77 296 7.0 12.0 0.00 0.00 0.00 20 1011.8
20260504220031 77 303 7.0 19.0 0.00 0.00 0.00 19 1011.5
20260504215031 78 298 11.0 19.0 0.00 0.00 0.00 19 1011.5
20260504214033 78 292 9.0 16.0 0.00 0.00 0.00 20 1011.2
20260504213033 78 297 6.0 12.0 0.00 0.00 0.00 21 1011.3
20260504212033 78 292 7.0 12.0 0.00 0.00 0.00 21 1011.3
20260504211033 78 294 9.0 16.0 0.00 0.00 0.00 22 1011.4
20260504210033 78 297 6.0 16.0 0.00 0.00 0.00 22 1011.2
20260504205031 78 288 4.0 9.0 0.00 0.00 0.00 22 1011.2
20260504204031 79 295 6.0 10.0 0.00 0.00 0.00 21 1010.9
20260504203033 78 79 4.0 13.0 0.00 0.00 0.00 21 1011.0
20260504202033 78 278 6.0 10.0 0.00 0.00 0.00 20 1011.0
20260504201033 78 279 5.0 12.0 0.00 0.00 0.00 20 1011.0
20260504200033 78 79 4.0 16.0 0.00 0.00 0.00 20 1011.1
20260504195033 78 62 3.0 10.0 0.00 0.00 0.00 21 1011.1
20260504194030 78 69 5.0 12.0 0.00 0.00 0.00 21 1011.0
20260504193033 78 71 4.0 12.0 0.00 0.00 0.00 21 1011.0
20260504192033 78 61 4.0 12.0 0.00 0.00 0.00 21 1011.0
20260504191033 78 276 6.0 16.0 0.00 0.00 0.00 21 1011.1
20260504190050 78 27 5.0 13.0 0.00 0.00 0.00 22 1011.2
20260504185033 77 24 4.0 12.0 0.00 0.00 0.00 24 1011.2
20260504184032 77 13 4.0 9.0 0.00 0.00 0.00 25 1011.5
20260504183031 77 1 5.0 10.0 0.00 0.00 0.00 25 1011.7
20260504182033 76 23 6.0 9.0 0.00 0.00 0.00 26 1011.7
20260504181033 76 14 5.0 12.0 0.00 0.00 0.00 26 1012.1
20260504180033 75 7 5.0 10.0 0.00 0.00 0.00 26 1011.9
20260504175033 75 9 6.0 16.0 0.00 0.00 0.00 27 1011.9
20260504174033 75 350 6.0 13.0 0.00 0.00 0.00 27 1012.2
20260504173031 75 6 4.0 13.0 0.00 0.00 0.00 28 1011.9
20260504172031 75 7 3.0 12.0 0.00 0.00 0.00 28 1011.9
20260504171033 75 10 6.0 13.0 0.00 0.00 0.00 29 1011.8
20260504151031 72 12 7.0 18.0 0.00 0.00 0.00 33 1011.5
20260504141033 69 27 2.0 7.0 0.00 0.00 0.00 32 1011.5
20260504081031 71 40 3.0 9.0 0.00 0.00 0.00 32 1009.8